Regional Weather Roundup
Issued by NWS

Home | Current Version | Previous Version | Graphics & Text | Print | Product List | Glossary Off
Versions: 1 2 3 4 5 6 7 8 9 10 11 12 13 14 15 16 17 18 19 20 21 22 23 24 25 26 27 28 29 30 31 32 33 34 35 36 37 38 39 40 41 42 43 44 45 46 47 48 49 50

000
ASUS43 KTOP 261408
RWRKS

WEATHER ROUNDUP FOR KANSAS
NATIONAL WEATHER SERVICE GOODLAND KS
800 AM CST WED NOV 26 2014

NOTE:  "FAIR" INDICATES FEW OR NO CLOUDS BELOW 12,000 FEET WITH NO
SIGNIFICANT WEATHER AND/OR OBSTRUCTIONS TO VISIBILITY.

KSZ001>006-013>018-027>032-041>047-261500-
NORTHWEST KANSAS

CITY           SKY/WX    TMP DP  RH WIND       PRES   REMARKS
GOODLAND       CLOUDY    30  27  88 NW17      30.19R WCI  18
HAYS           PTCLDY    37  23  56 NW10      30.11R WCI  30
HILL CITY      PTCLDY    37  24  59 NW16G24   30.14R WCI  28
RUSSELL        PTCLDY    36  27  69 NW13      30.09R WCI  27
$$

KSZ061>065-074>080-084>089-261500-
SOUTHWEST KANSAS

CITY           SKY/WX    TMP DP  RH WIND       PRES   REMARKS
DODGE CITY     CLOUDY    38  27  64 NW20G31   30.17R WCI  28
ELKHART          N/A     28  22  78 W7          N/A
GARDEN CITY    CLOUDY    33  27  78 NW14G23   30.19R WCI  23
GREAT BEND     PTCLDY    39  27  60 NW15      30.12R WCI  31
LIBERAL        CLEAR     32  25  74 W16       30.24R WCI  21
PRATT          CLOUDY    41  30  65 NW17G24   30.12R
$$

KSZ066>073-081>083-090>101-261500-
SOUTHEAST KANSAS

CITY           SKY/WX    TMP DP  RH WIND       PRES   REMARKS
CHANUTE        PTCLDY    35  27  72 W7        30.02R
COFFEYVILLE    MOCLDY    40  28  62 NW7       30.03R
HUTCHINSON     CLOUDY    42  29  59 NW15      30.09R
MEDICINE LODGE   N/A     44  32  62 NW15G23   30.11R
NEWTON         CLOUDY    41  27  56 NW17      30.06R
PARSONS        MOCLDY    33  27  78 W3        30.04R
WICHITA INTL   MOCLDY    43  27  53 NW16      30.06R
WICHITA JABRA  PTCLDY    41  29  62 NW14      30.05R
WICHITA MCCONL PTCLDY    42  28  55 NW14G22   30.06R
WINFIELD       CLOUDY    42  32  67 NW10      30.07R
$$

KSZ007>012-019>026-033>040-048>060-102>105-261500-
NORTHEAST KANSAS

CITY           SKY/WX    TMP DP  RH WIND       PRES   REMARKS
CONCORDIA      CLOUDY    40  24  53 NW24G32   30.04R WCI  29
EMPORIA        CLEAR     38  29  70 NW10      30.01R WCI  31
LAWRENCE       PTCLDY    35  30  82 NW7       29.97R
MANHATTAN      CLOUDY    41  26  55 NW10G17   30.02R
MARYSVILLE     CLOUDY    37  28  70 NW16      29.99R WCI  28
OLATHE IND     CLEAR     37  32  82 W12       29.96R WCI  29
OLATHE EXE     CLEAR     37  33  85 W5        29.95R
SALINA         MOCLDY    40  29  64 NW14      30.07R WCI  32
TOPEKA BILLARD CLOUDY    40  31  70 W7        29.99R
TOPEKA FORBES  MOCLDY    39  31  72 NW13      29.98R WCI  31
$$



USA.gov is the U.S. government's official web portal to all federal, state and local government web resources and services.